RH
73 70 66 57 62 58 48 37 34 28 36 25 22 18 13 15 15 17 18 18 27 30 33 51 64 87 88 100 100 100 100 100 90 96 97 99 100 100 100 100 100 100 100
29 32 23 22 23 21 29 28 31 32 28 16 12 11 10 10 12 13 15 18 20 29 39 46 59 66 83 96 100 100 100 95 99 98 100 100 100 93 100 100 100 100 100
18 16 17 18 17 16 18 27 35 24 20 19 19 15 13 11 10 9 9 9 13 20 34 54 66 80 80 79 79 98 100 99 97 99 100 97 100 100 100 100 100 100 100
20 20 20 20 20 19 20 24 29 18 18 18 19 23 22 22 16 13 12 10 11 12 17 28 38 56 75 94 97 88 100 100 96 97 96 98 95 98 100 100 100 100 90
19 23 22 22 19 19 19 19 20 21 18 18 20 26 24 20 20 20 16 17 19 19 15 17 21 31 44 62 89 100 98 90 82 76 73 78 89 87 85 83 84 82 78
14 17 20 19 18 18 19 16 16 16 16 15 19 22 22 16 16 18 40 37 27 34 33 27 20 16 16 25 39 57 71 68 56 53 52 50 55 62 70 64 56 54 53
27 25 19 17 17 18 16 16 15 15 14 15 17 18 17 16 15 17 23 22 19 19 21 27 32 32 33 31 30 32 28 29 30 34 38 41 39 37 36 35 33 30 30
38 38 22 20 19 18 17 15 15 15 15 16 16 17 16 16 15 16 18 19 17 17 17 18 17 19 19 23 29 32 32 27 22 17 15 14 15 16 18 19 16 16 15
44 40 32 22 16 16 15 16 17 18 20 18 17 16 15 16 16 16 17 18 19 19 18 18 20 24 25 23 21 20 19 17 16 13 12 12 12 13 13 13 12 13 14
31 31 28 21 22 16 15 14 17 20 21 19 17 16 15 15 18 16 16 17 18 21 23 24 24 25 26 24 21 18 15 14 14 13 14 14 15 17 18 17 18 17 20
39 29 23 18 16 19 17 14 14 15 19 18 16 16 18 18 20 21 22 27 30 26 28 26 26 24 24 23 20 18 16 15 15 15 20 22 19 21 25 27 27 24 22
31 42 39 29 20 12 11 13 12 15 14 14 15 16 18 22 22 27 28 28 28 26 21 23 23 22 23 24 24 22 23 24 25 23 22 25 23 23 25 24 24 25 24
17 22 26 20 13 10 9 10 12 12 13 15 16 15 19 19 17 20 21 24 23 22 20 22 26 29 29 31 33 36 36 39 36 36 39 38 38 35 32 29 32 34 38
9 10 14 11 8 9 8 8 11 11 11 13 13 15 16 15 17 19 20 21 21 24 25 29 30 28 29 29 31 37 40 42 46 45 39 34 32 35 41 42 41 45 47
18 12 8 8 8 8 7 8 8 9 10 10 12 14 17 16 16 18 21 25 27 25 27 33 32 29 26 26 29 31 26 25 26 30 33 35 34 33 36 38 39 39 41
14 14 16 12 7 7 8 8 8 10 10 11 12 13 14 15 16 18 21 22 24 24 26 28 28 27 28 26 25 24 24 24 25 25 27 29 30 30 32 35 36 36 35
17 14 17 16 12 8 8 8 8 9 9 10 12 14 15 14 17 17 18 18 17 18 20 22 26 28 28 29 30 28 33 32 31 31 32 35 36 37 40 45 49 49 46
23 16 16 14 14 12 9 10 8 8 10 11 10 12 12 12 12 14 14 16 18 22 24 27 28 30 32 33 35 38 43 47 49 51 48 44 45 47 50 54 53 50 45
18 19 16 12 11 9 9 9 8 9 9 10 10 10 11 12 12 13 14 16 19 22 22 23 25 26 27 30 32 38 45 51 50 44 43 46 49 54 56 57 53 48 45
13 10 11 9 9 9 8 8 9 9 9 9 9 9 9 9 10 13 15 17 17 17 17 19 20 21 28 31 37 41 49 48 42 43 46 48 49 51 55 58 57 56 57
11 11 8 8 7 6 7 6 7 7 8 8 8 8 8 9 11 13 15 14 14 13 13 13 14 18 22 28 34 58 66 65 57 49 49 49 46 44 47 47 52 50 54
12 9 9 9 7 6 6 6 7 7 7 7 8 8 9 11 11 11 11 11 11 11 11 12 15 23 26 31 36 44 51 65 65 65 63 57 58 60 58 61 67 54 53
28 15 9 9 9 8 7 7 7 7 7 8 8 9 9 9 9 9 9 9 9 9 10 16 25 28 29 38 52 60 70 77 73 79 68 60 59 59 62 60 56 48 55
54 45 33 20 10 10 9 9 8 8 7 7 6 7 7 7 8 9 9 9 10 13 18 21 24 27 37 56 85 88 82 80 92 91 71 56 47 45 47 50 56 59 65
40 63 59 48 35 16 8 7 7 7 7 7 8 8 9 10 10 11 14 19 24 28 32 34 40 53 83 97 97 95 95 86 75 64 66 64 61 67 69 77 75 72 72
39 33 34 37 47 58 58 51 42 34 21 21 29 31 29 26 27 32 40 46 51 56 63 73 90 100 100 100 88 80 71 64 63 60 57 69 72 80 75 85 88 87 89
Wind_Speed
3 2 3 3 3 5 5 8 10 11 12 15 18 20 22 23 25 27 28 30 32 32 34 37 38 39 36 37 36 35 37 38 38 35 35 27 27 26 26 26 26 27 27
2 3 2 3 3 2 1 1 3 3 3 11 15 16 16 18 19 20 21 24 26 28 28 29 32 35 38 37 40 40 37 37 37 37 36 36 34 31 31 31 31 32 31
4 4 5 7 6 4 7 8 9 7 3 1 3 8 8 8 11 14 16 18 19 20 23 26 27 28 29 34 40 40 38 38 37 39 39 38 38 37 36 37 37 35 36
10 9 8 9 13 12 14 13 15 13 11 8 6 4 6 6 5 3 8 14 15 17 18 19 23 27 30 30 29 37 40 38 40 40 40 41 41 42 43 43 43 43 43
16 17 14 13 13 15 18 15 14 14 15 11 12 12 14 15 16 11 8 6 7 12 16 17 17 19 22 24 28 29 32 37 38 40 44 44 43 45 46 47 48 48 50
18 19 20 17 15 14 15 14 15 15 16 19 16 17 16 22 22 23 22 19 16 14 10 10 13 14 15 15 17 19 22 25 27 30 35 39 42 44 45 46 47 48 49
14 14 17 18 17 18 15 16 17 17 19 20 21 19 18 21 24 26 28 28 28 27 24 20 17 12 8 5 5 5 7 9 11 15 18 20 23 27 30 34 36 37 37
12 10 12 14 14 16 17 16 17 20 22 21 21 22 20 21 23 27 28 25 27 26 26 26 24 21 19 17 14 13 12 10 9 7 5 1 3 7 9 10 10 11 11
8 9 9 9 10 11 14 16 19 20 21 22 22 24 22 24 22 24 25 26 25 26 25 24 24 23 22 20 19 17 15 12 10 6 6 4 6 5 1 1 4 4 6
6 6 8 7 8 5 10 13 15 15 16 17 18 19 22 20 19 18 19 20 21 20 19 18 16 15 14 14 13 13 11 10 10 8 7 7 5 5 4 3 4 6 7
5 6 8 6 5 7 4 10 12 10 11 12 13 16 17 18 18 18 17 17 18 16 17 16 16 14 12 13 11 11 11 9 9 6 6 5 3 3 1 2 2 5 8
5 3 1 4 10 4 4 6 9 11 11 12 14 11 15 15 13 13 13 15 14 12 14 12 13 14 12 10 11 9 7 6 5 2 1 1 1 2 4 5 8 10 13
5 3 1 5 9 10 8 9 9 14 13 14 12 12 12 10 6 7 8 10 9 10 9 7 6 6 5 3 2 2 2 6 6 7 10 9 10 10 11 14 15 16 19
3 3 2 3 2 4 10 9 9 10 11 10 11 10 9 5 5 7 12 10 7 5 5 3 1 2 2 2 4 7 9 11 12 13 13 15 16 17 20 21 22 24 26
4 3 3 1 5 4 6 8 5 6 7 8 9 8 9 7 10 11 8 5 2 1 3 3 5 6 7 10 12 14 14 15 18 20 21 23 24 25 26 26 28 28 29
6 6 4 2 2 0 1 3 6 7 7 9 8 9 11 10 9 6 5 4 5 5 6 9 9 12 14 17 19 19 19 20 21 22 23 25 27 28 29 31 33 33 34
9 8 7 6 5 5 5 7 7 10 8 10 10 13 13 12 10 8 8 8 9 11 12 14 16 18 20 22 23 24 25 26 27 29 30 32 32 34 36 37 40 41 42
9 9 9 10 9 8 9 9 12 13 12 12 11 14 12 13 12 12 13 14 16 17 18 21 22 24 27 28 31 33 35 36 36 36 36 38 39 41 42 44 45 45 45
13 12 12 12 13 11 11 12 14 15 17 15 15 15 16 17 17 17 19 18 19 22 25 28 29 32 35 36 39 40 41 41 41 40 40 42 42 43 45 47 48 49 50
16 16 16 17 18 18 17 18 17 17 18 20 20 22 23 25 24 22 22 25 28 31 34 36 39 41 41 42 43 47 47 46 45 45 45 45 46 47 49 50 52 55 58
18 20 21 19 22 23 22 23 24 26 25 28 29 29 29 29 27 28 29 32 36 38 41 43 45 47 48 50 51 52 53 54 52 52 52 53 53 53 55 58 61 62 62
20 21 22 23 26 27 28 28 28 28 30 30 30 31 31 32 34 36 39 41 43 46 48 51 53 52 53 55 56 58 61 61 59 59 60 61 63 65 67 67 68 69 69
25 26 27 26 27 30 32 33 34 33 33 34 34 35 37 39 41 44 45 48 50 52 55 56 56 58 59 61 63 64 66 66 65 65 66 68 70 71 72 73 75 75 74
25 28 30 31 33 34 35 37 37 38 40 41 43 43 45 48 49 50 52 54 57 59 60 60 62 63 65 66 66 67 66 66 68 70 74 73 73 74 76 78 78 78 79
28 29 31 33 36 40 41 42 43 44 45 46 48 50 51 52 54 55 57 59 60 62 64 66 67 68 68 68 68 70 70 72 73 73 75 78 78 79 80 81 83 84 85
30 32 33 34 37 39 41 43 46 49 52 53 53 54 55 57 58 59 60 62 63 64 65 67 68 69 69 71 73 75 76 76 77 77 77 80 81 84 86 88 91 92 92
Wind_Direction
189 223 256 243 278 278 293 295 290 289 285 276 269 266 261 254 250 248 247 247 246 246 243 240 237 234 234 232 235 237 240 241 242 247 244 241 242 241 247 250 253 257 257
126 143 150 92 140 147 122 359 329 304 296 283 283 277 274 264 258 251 245 242 241 240 239 239 239 240 235 234 233 238 240 242 245 246 245 246 246 242 249 255 262 267 267
113 95 106 122 152 160 149 137 130 127 151 153 299 304 300 277 260 249 245 240 238 236 237 237 237 236 239 239 238 238 238 239 241 243 247 247 245 250 255 258 258 260 262
108 121 135 147 155 151 151 151 133 126 130 127 104 78 64 60 19 310 244 236 234 231 229 233 237 238 239 241 239 236 236 239 242 245 247 250 251 252 256 259 262 265 263
117 123 126 135 139 143 137 137 124 125 119 125 113 106 109 97 75 55 65 112 192 215 222 228 228 229 234 238 241 242 241 244 246 249 253 256 257 257 259 261 263 267 269
106 117 123 131 124 117 141 126 133 121 118 109 116 111 106 95 89 78 81 78 82 95 129 187 213 223 229 234 240 242 244 246 251 256 258 259 261 264 266 269 271 272 274
91 91 100 107 111 116 134 122 113 115 120 112 110 109 109 103 98 95 93 94 91 94 95 100 107 118 134 161 188 198 226 244 252 259 264 268 269 271 272 273 274 276 276
102 94 105 106 106 103 115 110 112 114 117 113 108 106 108 102 105 103 100 97 98 99 97 95 96 97 96 99 98 102 103 104 104 105 112 148 265 263 269 279 283 281 285
111 105 104 97 99 103 102 114 112 116 116 119 116 117 111 105 102 100 102 103 101 100 101 100 102 103 105 110 116 118 125 130 143 130 123 121 97 87 106 261 310 335 332
123 132 125 118 116 111 122 127 125 116 119 118 125 125 121 117 110 105 107 102 104 100 101 102 98 97 100 106 113 115 104 98 93 104 94 89 79 63 37 4 357 327 323
77 126 166 162 170 167 161 151 143 136 130 128 125 116 117 117 113 114 115 112 106 102 101 104 111 106 105 112 116 123 123 120 123 128 123 105 117 111 96 344 312 291 291
35 7 119 180 203 201 183 190 152 146 141 137 132 125 123 113 113 111 108 105 98 96 105 104 108 102 101 107 108 110 107 97 114 110 114 153 216 278 290 300 312 312 313
50 73 228 212 206 209 197 176 164 156 155 147 135 141 134 125 114 124 117 127 124 117 107 97 100 110 116 113 67 354 320 315 307 308 307 307 296 287 299 308 303 301 304
39 67 208 189 171 196 163 158 162 167 160 151 150 150 154 151 145 137 141 139 126 125 131 143 10 10 349 334 308 289 290 291 289 289 297 302 302 303 308 308 305 304 303
3 16 49 97 96 123 175 153 163 178 172 179 166 157 167 162 163 165 158 145 141 152 316 316 305 298 292 301 307 312 316 316 313 311 309 307 305 304 303 299 296 296 297
299 300 290 272 238 240 102 191 194 190 191 188 203 196 201 201 195 207 236 271 276 286 291 300 302 308 316 319 319 317 314 312 308 305 300 299 300 299 299 300 299 297 295
289 283 289 280 257 244 247 223 217 216 229 217 219 204 204 208 209 232 247 269 285 294 296 304 307 310 311 310 310 308 307 303 300 299 297 297 295 294 293 296 297 295 294
289 276 278 272 269 255 230 238 230 219 224 220 229 223 229 235 244 259 265 271 282 288 296 303 305 307 306 305 307 307 306 303 302 301 297 294 294 295 296 297 295 296 296
269 269 268 270 263 249 237 235 229 233 231 237 248 245 250 259 269 269 273 282 288 292 297 299 300 302 302 303 304 305 304 302 299 295 292 290 290 291 292 292 292 294 296
265 259 264 259 262 256 254 249 247 251 254 259 269 270 268 271 273 274 282 286 290 295 298 301 301 302 300 300 303 303 301 300 297 296 293 291 289 290 291 291 293 294 296
272 265 264 263 260 259 259 258 261 261 262 265 270 274 277 275 277 281 282 287 292 295 297 298 298 296 296 296 297 296 297 295 293 293 293 291 291 292 292 293 296 297 299
280 277 271 267 263 261 262 265 271 273 271 268 269 271 270 272 278 282 285 287 290 291 292 293 294 294 294 295 294 294 295 296 294 291 290 292 293 293 293 294 296 297 296
284 281 280 280 275 266 265 268 270 267 261 262 265 267 270 273 275 279 280 281 284 286 288 291 292 292 292 292 294 294 295 295 294 294 294 294 295 295 295 296 295 295 294
287 285 283 280 278 277 275 273 275 274 272 271 271 272 274 275 278 281 283 285 286 288 290 290 291 290 291 292 292 291 292 292 294 295 295 295 295 295 295 294 293 294 295
292 290 288 285 282 278 276 274 274 274 273 274 275 277 278 279 281 282 284 285 286 288 289 290 290 290 291 292 293 293 293 294 293 293 294 295 295 296 296 296 296 297 297
287 289 287 288 291 291 288 283 280 280 278 280 282 284 284 284 285 286 287 288 288 288 289 290 291 292 293 294 295 295 294 294 294 294 295 295 297 297 297 297 297 297 296